This is the latest recevied weather packets stored in our database for station/object WX1N. If no packets are shown the sender has not sent any weather packets the latest 10 day(s).
| Time | Temp. | Humidity | Pressure | Rain* | Wind** | Luminosity | Snow |
|---|---|---|---|---|---|---|---|
| 1777907403 | 15.56° C | 46% | 1006.5 hPa | 0 mm | - | - | - |
| 1777907103 | 15.56° C | 46% | 1006.6 hPa | 0 mm | - | - | - |
| 1777906803 | 15.56° C | 46% | 1006.5 hPa | 0 mm | - | - | - |
| 1777906503 | 15.56° C | 45% | 1006.6 hPa | 0 mm | - | - | - |
| 1777906203 | 15.56° C | 45% | 1006.7 hPa | 0 mm | - | - | - |
| 1777905903 | 15.56° C | 46% | 1006.7 hPa | 0 mm | - | - | - |
| 1777905603 | 16.11° C | 45% | 1006.6 hPa | 0 mm | - | - | - |
| 1777905303 | 15.56° C | 46% | 1006.5 hPa | 0 mm | - | - | - |
| 1777905003 | 15.56° C | 47% | 1006.5 hPa | 0 mm | - | - | - |
| 1777904703 | 15° C | 46% | 1006.6 hPa | 0 mm | - | - | - |
| 1777904403 | 15° C | 48% | 1006.5 hPa | 0 mm | - | - | - |
| 1777904103 | 15° C | 47% | 1006.6 hPa | 0 mm | - | - | - |
| 1777903803 | 15° C | 50% | 1006.6 hPa | 0 mm | - | - | - |
| 1777903503 | 15° C | 51% | 1006.7 hPa | 0 mm | - | - | - |
| 1777903202 | 15° C | 51% | 1006.7 hPa | 0 mm | - | - | - |
| 1777902903 | 15° C | 51% | 1006.5 hPa | 0 mm | - | - | - |
| 1777902602 | 15° C | 52% | 1006.6 hPa | 0 mm | - | - | - |
| 1777902303 | 15° C | 53% | 1006.6 hPa | 0 mm | - | - | - |
| 1777902003 | 14.44° C | 53% | 1006.7 hPa | 0 mm | - | - | - |
| 1777901703 | 14.44° C | 53% | 1006.8 hPa | 0 mm | - | - | - |
| 1777901403 | 14.44° C | 55% | 1006.8 hPa | 0 mm | - | - | - |
| 1777901103 | 13.89° C | 53% | 1007 hPa | 0 mm | - | - | - |
| 1777900803 | 13.89° C | 54% | 1007.1 hPa | 0 mm | - | - | - |
| 1777900503 | 13.89° C | 54% | 1007.3 hPa | 0 mm | - | - | - |
| 1777900203 | 13.33° C | 54% | 1007.3 hPa | 0 mm | - | - | - |
* Rain latest hour (hover to see other rain measurements)
** Current wind speed in m/s (hover to see current wind gust speed)